GFSGL_sfc_thetae_129.txt.gz
Theta_e
300 300 300 300 300 301 301 300 302 301 301 301 300 298 297 297 296 295 296 297 297 296 296 296 295 295 295 295 293 293 294 293 290 293 295 295 294 293 293 294 294 293 293
296 296 296 296 296 295 295 296 295 294 294 294 292 292 291 290 291 292 293 294 293 292 292 292 291 292 291 291 291 290 291 291 289 287 290 290 291 291 291 290 291 291 290
293 293 293 293 293 292 292 291 291 290 290 289 289 288 287 286 287 287 287 288 289 287 287 288 288 287 286 286 287 287 287 288 288 285 285 288 288 289 288 288 288 288 288
291 291 290 289 290 289 289 288 288 287 287 286 285 284 284 284 284 284 284 284 284 284 284 284 283 285 285 284 284 285 286 285 285 285 284 284 285 286 286 285 284 286 286
289 288 287 287 287 286 285 285 284 284 284 284 284 284 284 284 284 283 283 283 283 282 283 284 285 285 287 287 286 285 285 284 283 283 282 283 283 283 283 284 283 284 284
286 286 285 285 284 283 284 283 283 282 282 282 281 283 283 285 290 288 284 282 283 283 283 282 284 284 285 286 287 287 286 284 282 282 282 281 282 283 284 283 283 282 280
284 284 284 284 283 283 282 282 281 281 281 280 280 282 283 285 289 288 286 283 282 282 282 282 283 283 282 284 286 286 286 287 286 284 282 282 282 283 284 283 283 283 283
283 283 283 282 282 281 280 280 279 279 280 280 280 282 283 286 288 287 285 282 282 282 282 282 282 282 282 283 282 282 283 283 283 283 284 284 285 285 285 285 284 283 283
282 282 281 281 280 279 278 278 278 279 279 278 280 279 284 285 288 287 284 281 282 282 282 282 282 282 285 287 283 280 281 284 287 288 289 289 288 288 287 284 281 280 278
282 281 280 279 278 276 277 276 274 276 279 280 279 277 277 274 287 286 283 280 276 280 281 282 283 283 285 286 283 283 281 282 283 284 285 285 284 283 285 283 282 279 278
280 279 278 277 276 276 276 273 275 277 278 276 276 275 275 276 280 285 285 281 279 277 278 279 280 285 285 285 285 282 282 283 282 283 283 281 278 279 280 281 282 281 278
278 277 275 274 277 276 275 275 275 276 276 273 275 274 273 275 281 284 284 284 283 273 275 279 280 283 283 281 278 281 280 279 279 279 278 279 279 279 279 280 280 281 282
275 274 272 271 273 274 274 275 274 275 276 275 275 273 272 275 277 282 282 282 281 276 277 279 279 278 277 274 276 276 272 271 271 272 274 275 277 278 279 279 280 279 278
273 272 272 273 272 276 277 277 276 276 275 275 275 273 272 272 275 274 273 272 276 274 273 268 273 273 273 271 268 270 268 268 269 269 270 271 272 274 274 277 277 278 277
274 273 273 274 276 274 275 275 276 276 277 275 272 273 273 273 274 278 274 270 267 271 261 258 259 261 263 264 264 265 265 266 266 267 267 267 268 269 270 271 273 276 275
273 273 274 275 274 274 275 276 279 279 280 280 279 277 275 279 280 279 277 277 275 273 258 255 257 259 261 261 260 261 262 263 264 265 264 265 265 265 266 268 271 271 272
274 274 274 274 274 274 274 275 275 279 281 281 281 280 278 278 278 277 275 274 272 266 255 253 254 255 256 258 258 259 259 262 262 261 262 262 263 263 264 265 266 267 268
275 275 275 274 274 274 274 274 276 273 271 272 279 276 278 277 276 275 273 268 256 257 251 251 251 252 254 254 254 255 258 258 259 260 259 260 260 261 262 262 263 264 265
275 274 274 273 272 273 273 272 272 271 270 268 265 271 268 276 275 272 269 257 255 252 251 249 250 251 252 252 252 251 251 252 254 253 255 256 257 260 260 260 261 262 264
274 273 272 271 270 270 269 268 267 265 264 264 262 263 258 260 258 258 253 252 251 252 251 249 249 247 248 248 248 248 248 249 250 251 252 254 256 255 258 258 259 259 260
270 269 270 269 268 268 267 267 266 264 264 263 261 259 266 259 259 257 254 250 253 250 251 250 249 247 246 247 246 246 247 250 248 249 249 251 254 255 255 256 256 257 258
269 267 267 267 267 267 266 266 265 264 263 262 259 261 273 258 256 254 252 251 251 250 251 251 249 249 250 249 250 247 248 249 247 246 247 249 252 253 253 254 253 255 256
267 267 266 265 266 267 265 265 264 263 263 263 262 261 257 256 254 253 251 250 248 249 247 246 248 249 248 248 247 249 249 251 251 247 247 247 249 251 249 251 252 250 250
266 265 266 265 265 265 265 264 264 264 263 261 259 257 256 254 253 252 251 250 247 247 246 246 247 249 249 249 247 246 247 248 246 248 248 248 249 249 247 248 249 249 250
267 266 266 266 266 265 265 264 263 262 261 259 257 255 254 252 250 250 250 248 247 246 249 248 247 248 250 250 249 248 248 254 252 250 247 245 248 247 248 248 248 246 246
267 267 266 266 265 265 264 262 261 260 258 257 256 255 254 253 252 250 249 248 249 249 250 249 249 249 249 249 249 251 254 257 256 254 252 248 250 250 246 249 247 244 245

GFSGL_sfc_thetae_132.txt.gz
Theta_e
304 305 306 306 307 307 306 304 303 303 303 301 300 299 298 297 297 297 297 297 296 295 295 294 293 294 293 292 291 292 292 291 289 290 292 292 291 290 291 290 290 289 290
300 301 301 301 300 300 299 296 296 296 296 293 293 292 291 291 292 294 293 293 292 291 291 289 287 288 286 286 285 285 286 287 286 283 286 286 286 288 288 288 288 289 288
296 295 295 295 294 293 292 291 291 291 290 289 289 288 287 286 287 288 289 288 286 285 285 284 284 284 282 282 282 285 284 286 286 284 283 285 285 284 285 286 286 287 287
293 293 292 291 291 290 289 289 289 288 287 286 285 284 284 284 284 284 284 283 283 283 283 282 282 282 282 282 283 282 282 283 284 283 283 282 284 284 284 283 283 285 284
290 289 288 288 287 287 286 285 285 285 284 284 284 283 284 283 283 283 283 282 281 281 282 283 282 283 286 286 283 284 284 283 282 282 281 282 282 282 281 283 282 282 284
288 287 286 285 285 284 284 284 284 283 283 283 283 284 284 285 289 288 284 282 282 282 282 281 282 281 283 286 286 286 285 283 282 281 281 280 281 282 283 282 282 282 279
285 284 284 284 284 284 283 283 282 282 282 281 282 283 284 284 289 288 286 282 282 281 281 282 282 282 281 282 284 286 285 287 287 284 282 282 282 283 283 282 281 280 280
284 284 283 283 283 282 281 281 280 280 281 281 281 283 284 286 288 287 285 282 281 281 282 282 281 281 282 282 280 277 279 280 282 282 280 283 284 285 284 282 282 281 281
284 284 283 283 282 281 280 280 279 280 279 278 281 283 283 285 287 287 284 281 282 281 282 281 280 280 285 286 279 276 277 280 284 285 287 287 288 288 286 281 279 278 277
285 284 283 282 281 281 280 279 276 277 279 280 281 279 278 281 287 286 283 280 277 279 280 281 282 281 285 285 277 274 272 277 277 278 281 284 284 282 283 280 278 277 277
281 280 280 279 280 279 277 274 277 277 277 275 276 275 276 277 283 286 285 281 279 277 277 277 279 284 283 282 281 274 276 277 275 274 275 277 280 280 279 279 279 278 277
280 279 277 277 278 277 276 274 275 276 275 274 275 275 275 277 283 285 285 284 283 276 277 278 279 280 279 279 276 278 276 272 265 267 269 270 272 273 275 277 278 280 280
278 276 275 275 276 276 276 275 275 276 276 275 276 276 276 277 277 283 283 283 281 277 277 278 278 277 275 271 275 274 267 263 263 261 265 268 270 271 272 272 273 274 277
276 275 273 274 273 274 277 277 278 277 276 276 276 276 277 276 276 276 277 277 279 274 273 269 273 272 273 269 266 267 265 265 264 264 265 267 267 267 267 269 268 272 271
275 274 274 274 275 275 276 278 278 274 278 277 277 278 276 276 277 279 277 274 272 271 263 260 258 260 261 263 261 262 260 260 261 263 262 263 264 264 265 266 267 266 267
274 274 274 274 274 275 276 276 280 279 281 281 281 279 278 280 281 282 280 279 277 274 260 257 258 261 262 262 258 258 259 259 261 261 258 261 261 262 262 263 264 264 264
275 274 274 274 274 275 276 276 275 279 282 282 282 281 280 280 281 281 279 278 276 271 259 260 261 260 259 259 257 258 258 259 257 257 256 257 259 259 260 260 261 261 262
274 275 275 275 276 276 276 277 277 277 277 278 282 281 281 280 280 279 278 273 264 261 257 257 256 256 257 256 256 255 255 254 254 255 255 254 254 255 256 258 259 258 259
274 274 276 276 276 276 276 276 277 276 276 275 270 278 277 280 279 278 277 263 261 258 257 254 254 255 255 254 252 250 250 250 251 249 250 249 252 251 252 253 257 257 257
271 274 276 275 274 273 273 273 274 273 273 272 272 273 267 269 273 266 262 260 260 259 258 256 254 252 252 249 248 247 247 247 247 247 248 248 250 249 251 252 252 255 255
273 275 274 274 272 272 272 272 272 272 271 270 270 268 270 269 268 266 262 258 259 257 256 254 253 251 248 246 246 246 246 248 246 246 245 246 246 247 249 252 251 250 251
271 273 272 273 272 270 270 271 271 270 270 268 264 265 275 266 264 262 260 260 257 254 253 252 251 250 250 249 250 249 247 247 245 245 246 246 246 246 246 248 247 249 249
271 270 269 268 268 269 268 267 268 267 267 267 266 265 265 267 264 261 260 258 254 251 248 247 249 250 249 248 248 250 250 250 250 247 247 247 245 246 245 246 247 246 246
270 270 269 269 268 267 268 267 267 266 267 266 265 265 265 263 261 259 257 255 250 248 246 247 248 250 249 249 248 247 247 248 244 247 247 246 247 245 244 244 247 248 249
269 268 268 268 267 267 268 267 267 266 266 266 264 263 262 261 259 257 255 252 251 250 250 249 248 249 250 250 250 248 247 253 250 248 245 243 246 245 245 244 246 245 246
267 268 269 269 268 268 268 267 267 266 265 264 264 262 260 260 259 257 255 252 251 251 251 251 250 249 249 250 249 251 254 257 253 252 249 247 247 248 247 247 247 248 247

GFSGL_sfc_thetae_138.txt.gz
Theta_e
311 312 311 309 310 320 322 321 317 312 311 312 312 309 309 307 306 306 305 304 302 300 299 298 297 298 297 297 295 295 295 296 293 294 293 292 291 290 291 291 291 291 291
311 310 311 311 311 312 314 314 309 307 309 309 306 306 305 304 306 306 302 302 300 298 297 297 295 294 293 293 292 291 291 290 290 288 290 290 288 289 289 289 289 289 290
308 308 306 306 308 309 307 304 306 303 304 304 303 305 302 300 301 301 301 299 298 298 296 293 292 291 290 290 290 289 289 288 289 287 287 289 288 289 288 289 288 289 289
304 306 304 304 304 302 300 300 300 302 300 300 302 302 297 296 297 295 296 295 293 292 291 291 290 290 288 288 288 288 287 287 287 287 286 286 287 288 288 286 286 289 287
302 301 303 304 302 300 298 298 297 296 296 298 297 296 295 295 293 293 292 291 290 289 288 288 288 287 287 288 288 287 287 287 286 286 285 285 285 284 283 285 284 286 287
299 300 299 296 293 293 294 292 292 293 294 293 293 293 292 289 291 291 290 289 288 287 286 286 287 286 287 287 287 287 288 286 284 284 284 282 282 283 284 284 283 281 280
298 297 294 292 291 291 290 290 290 292 291 291 291 291 290 291 290 289 288 288 287 287 286 286 285 285 286 287 286 286 285 286 286 285 282 283 282 284 283 281 281 280 280
295 294 292 290 289 287 287 288 289 290 290 290 289 290 290 290 290 289 287 288 287 287 286 286 285 286 286 285 285 284 284 284 283 283 284 284 285 284 283 282 281 280 281
293 292 290 289 288 286 286 287 289 289 288 289 288 289 289 289 290 288 287 286 285 285 286 286 285 285 286 286 283 281 281 281 281 281 282 283 283 281 281 281 278 278 277
293 292 291 290 288 287 288 287 287 288 287 287 287 288 287 287 289 288 287 286 285 284 284 284 283 285 285 284 282 280 279 278 279 279 279 279 279 279 278 278 278 275 275
290 289 288 288 288 289 288 287 285 286 285 286 286 286 286 287 288 288 287 286 285 284 283 283 284 286 284 282 281 280 279 277 276 276 277 278 277 277 277 277 277 275 274
287 287 287 286 287 286 285 285 285 285 284 284 284 284 285 286 286 288 287 286 286 284 283 282 284 284 283 282 279 279 277 275 276 276 276 275 274 274 274 274 275 275 275
285 285 285 285 285 285 285 284 284 284 284 283 283 283 283 284 286 287 287 286 285 284 283 283 283 282 282 279 278 276 272 274 274 273 273 272 272 272 272 273 273 274 274
284 283 282 283 283 284 285 285 285 284 284 283 283 283 283 283 285 286 285 285 283 282 282 282 281 278 276 276 274 272 273 273 273 272 271 271 271 272 271 271 270 271 271
282 281 282 283 282 282 284 284 284 285 285 284 284 284 282 282 284 285 285 283 281 281 278 277 274 273 271 271 271 270 270 270 270 270 270 270 270 270 270 270 269 269 268
281 280 281 281 281 281 282 281 284 285 284 286 286 285 285 286 285 285 285 283 281 280 274 273 272 272 272 272 271 270 269 268 269 269 268 268 268 268 268 268 268 267 266
281 280 280 279 280 280 280 281 280 282 283 285 285 285 285 284 285 285 284 283 282 279 274 274 273 273 273 272 271 270 269 269 267 268 268 267 267 267 265 266 266 266 265
278 278 280 280 280 280 280 281 282 281 280 281 284 284 284 284 284 285 285 283 279 279 273 273 273 273 272 271 270 269 269 266 266 267 266 265 265 265 265 265 265 263 264
278 279 279 280 280 280 281 281 282 282 281 282 282 283 283 284 284 285 285 281 278 278 274 272 273 272 272 271 269 268 268 266 266 265 265 263 263 263 263 263 263 260 260
276 275 277 279 279 279 280 280 281 281 281 281 281 281 282 282 281 282 283 281 278 277 275 272 271 271 270 268 267 266 264 263 263 263 264 264 263 262 262 261 262 262 262
275 276 276 277 278 279 280 280 280 280 280 281 281 282 283 281 281 281 281 281 276 275 273 271 270 268 267 266 266 264 264 264 264 264 263 263 262 260 261 262 261 260 260
273 274 275 276 277 278 278 279 279 280 280 280 281 281 283 281 281 281 281 280 277 276 274 270 269 267 266 265 264 264 263 263 263 262 262 260 260 260 260 260 259 260 260
271 272 273 275 276 276 277 278 278 278 279 279 279 279 278 280 279 280 279 278 275 272 270 269 268 266 265 264 264 264 263 263 263 263 261 260 258 259 259 259 259 258 259
269 270 271 272 273 274 274 275 276 275 276 277 278 278 276 278 279 277 276 274 270 269 267 266 266 265 263 263 262 263 263 264 263 261 260 260 259 258 259 258 258 257 258
268 269 270 270 271 271 272 273 273 274 274 274 275 275 275 275 275 277 275 273 270 268 266 264 264 264 264 262 261 261 261 261 259 258 258 258 258 257 257 257 257 257 257
267 267 268 269 269 270 270 271 272 272 273 273 274 274 274 273 273 274 273 270 268 267 266 263 263 262 262 262 261 261 260 260 258 257 256 256 256 256 256 255 255 255 255

GFSGL_sfc_thetae_141.txt.gz
Theta_e
314 314 315 318 321 323 323 324 323 320 319 319 317 317 314 311 310 308 306 305 303 301 302 300 299 300 298 298 298 298 297 297 294 293 292 292 290 289 290 290 290 289 290
313 313 313 313 311 311 318 319 318 316 317 317 314 311 310 307 307 306 304 304 302 299 299 298 297 297 297 296 295 293 292 291 291 287 289 289 288 288 288 287 289 289 289
312 311 312 310 310 310 312 313 312 313 310 308 307 306 305 304 305 305 303 302 301 299 298 297 295 294 291 291 291 290 290 289 289 287 286 287 287 287 286 287 287 287 290
310 310 308 309 309 309 309 307 307 306 304 302 304 304 300 300 298 297 297 298 297 295 294 294 292 291 290 289 288 288 288 287 286 286 285 285 285 285 285 284 282 285 284
307 307 307 305 304 305 302 300 298 298 298 297 297 298 294 294 292 293 293 294 291 290 289 288 290 289 289 290 288 287 287 286 285 285 284 284 283 282 281 283 282 283 283
304 305 306 304 297 295 294 292 292 292 293 293 293 293 293 289 294 294 293 291 289 288 287 287 286 285 287 288 289 289 288 285 282 284 283 281 281 282 282 281 280 278 276
301 301 299 296 293 293 292 291 291 291 291 290 291 292 292 291 292 292 291 289 288 287 286 286 285 285 286 286 287 287 286 287 287 284 281 282 281 282 282 277 277 277 277
297 297 295 293 291 290 289 289 288 289 289 290 290 291 291 291 291 291 289 288 288 287 286 286 285 285 286 285 284 284 283 284 283 283 283 283 283 282 281 280 278 277 279
295 294 291 291 289 288 287 287 288 288 287 288 289 290 289 288 291 289 288 287 286 285 286 286 286 285 287 287 284 282 282 281 282 282 283 284 282 281 280 278 274 273 273
293 293 291 290 289 288 288 287 286 287 286 287 287 287 287 287 290 289 288 286 284 284 284 284 285 285 287 287 283 281 279 280 279 278 280 280 279 279 278 278 276 270 272
290 289 289 289 288 289 287 286 286 286 285 286 285 286 286 287 288 289 289 285 285 283 283 282 283 286 287 286 284 282 281 280 278 277 277 278 277 277 276 276 276 274 271
287 287 286 287 287 287 287 285 285 286 285 285 285 285 285 285 287 289 289 287 287 284 283 283 284 286 285 284 282 282 281 279 277 276 276 275 275 274 274 274 274 274 274
284 285 285 286 286 286 286 285 285 285 286 285 284 284 284 285 286 288 288 288 287 285 284 284 285 286 285 283 281 281 277 275 275 275 275 274 273 273 273 273 273 274 273
284 284 284 285 285 285 286 286 286 285 285 285 284 284 284 284 285 286 286 286 285 284 284 283 284 284 283 280 278 277 274 275 274 275 274 273 272 271 271 271 269 270 268
284 282 283 284 284 284 284 285 285 286 287 285 285 285 284 283 284 286 286 285 284 283 282 282 279 276 275 275 274 273 272 271 271 272 271 270 270 270 270 269 268 266 265
282 281 282 282 282 282 283 283 286 287 287 288 288 287 286 287 287 287 287 287 285 284 279 277 276 275 273 273 272 271 271 270 272 271 270 270 269 269 268 268 267 265 262
280 282 282 280 281 282 282 282 282 283 285 285 286 287 287 286 287 287 287 287 285 283 277 276 275 274 274 274 273 272 270 270 271 270 269 269 268 267 262 265 265 264 262
278 279 279 281 281 281 282 282 282 282 281 281 284 285 286 286 286 287 287 286 281 281 277 276 275 275 275 275 274 272 271 270 268 268 268 267 266 266 265 263 263 260 260
276 279 279 280 281 280 281 281 282 281 282 282 282 284 284 285 286 286 287 283 280 279 278 276 277 276 275 275 274 273 271 268 267 267 267 266 265 264 263 263 261 259 258
277 275 275 277 279 280 280 280 280 281 281 281 281 282 283 283 282 282 283 283 281 280 279 277 276 276 275 274 273 271 270 268 267 266 266 265 265 263 263 261 261 259 259
274 276 274 276 278 278 279 279 280 280 280 281 282 283 284 282 281 282 282 282 282 281 281 280 276 274 274 273 271 269 268 266 266 265 265 265 264 262 262 262 261 258 258
273 273 275 275 276 277 278 278 279 279 279 280 281 282 284 283 282 282 283 283 283 284 282 279 275 273 272 271 270 268 267 266 265 265 265 264 262 262 262 261 260 260 259
271 271 272 273 275 275 276 277 277 277 278 278 279 279 281 281 282 282 282 283 283 283 280 276 274 272 271 270 270 269 267 267 267 266 264 262 261 261 260 259 259 258 258
269 269 270 271 272 272 272 273 274 274 275 275 276 277 278 279 279 281 281 282 282 278 277 274 274 272 270 269 268 268 268 268 267 265 264 262 261 260 260 259 259 258 258
267 267 268 269 269 270 270 271 271 272 272 273 274 274 275 276 276 277 278 280 279 275 273 272 272 271 270 268 267 266 266 267 265 264 263 262 261 260 259 259 258 257 257
264 265 266 267 267 267 268 268 268 269 270 271 272 272 273 273 274 275 275 276 276 274 273 271 269 269 268 267 266 265 265 266 262 262 261 260 260 259 259 257 257 257 256

GFSGL_sfc_thetae_144.txt.gz
Theta_e
312 314 315 315 320 324 323 322 323 320 319 319 319 317 315 314 312 311 308 306 304 302 302 300 299 299 298 299 298 296 293 293 289 287 287 286 285 285 285 286 287 285 285
308 308 308 309 310 315 319 320 319 317 315 316 313 311 310 309 309 308 305 304 302 300 300 299 298 298 297 296 293 289 288 287 286 283 284 284 283 284 283 283 286 288 285
306 306 306 305 305 303 304 311 313 312 311 310 309 308 307 305 305 305 304 302 301 299 299 297 297 296 292 289 287 286 286 287 285 281 281 282 282 282 281 281 282 282 286
304 304 303 302 302 302 302 303 303 306 305 305 305 304 301 302 300 299 299 299 298 297 296 295 294 291 286 285 285 284 284 282 281 279 278 279 280 281 277 277 276 277 279
302 302 302 303 301 303 302 301 300 300 300 300 299 297 296 295 294 294 295 295 293 291 290 289 289 287 287 287 285 283 283 280 280 278 277 276 276 277 277 277 275 275 276
299 299 300 302 297 297 295 294 294 293 294 294 293 293 292 290 295 295 294 291 289 288 286 286 285 285 287 290 289 288 286 282 277 277 276 275 278 278 277 275 275 272 271
296 295 295 296 294 293 293 291 291 291 291 292 292 292 291 291 295 295 292 289 288 287 285 284 284 284 284 285 289 290 288 289 287 281 278 279 280 280 278 273 274 273 273
291 292 294 292 291 291 290 289 289 290 290 290 290 290 290 291 294 293 289 287 286 285 284 284 284 283 284 284 283 281 282 283 283 283 281 281 281 281 279 278 276 273 274
289 292 292 289 288 287 287 287 288 287 287 287 288 288 288 288 292 292 288 286 285 284 284 283 284 284 287 287 282 280 281 281 284 285 285 285 284 282 280 274 268 267 266
289 289 290 289 288 288 287 286 285 286 286 286 286 287 287 287 291 291 288 285 283 283 283 283 284 284 288 287 282 281 280 279 279 280 282 281 281 279 279 277 274 266 268
285 283 288 287 287 287 287 285 286 285 285 285 285 285 286 286 289 290 289 285 284 283 283 282 284 287 288 288 285 282 281 281 280 278 278 277 277 277 276 276 276 272 267
281 282 284 286 285 286 287 285 285 285 285 285 285 283 284 284 287 290 290 287 287 283 282 283 283 287 288 288 285 284 284 281 277 276 275 275 275 275 274 274 274 273 273
283 284 284 284 285 285 285 285 284 285 285 284 284 283 283 283 285 289 290 289 288 283 284 284 285 287 287 287 285 284 281 276 275 274 274 275 274 274 272 271 272 272 271
278 278 280 284 283 284 284 284 285 284 284 284 284 284 283 283 284 285 286 287 286 285 285 284 285 286 285 283 281 282 276 275 275 274 274 273 272 271 270 270 267 268 264
276 276 277 279 282 282 282 283 283 284 286 285 285 285 284 282 284 286 286 285 285 284 282 282 283 282 280 277 276 274 273 273 273 273 272 271 270 270 270 269 268 265 262
277 277 277 276 277 278 279 280 286 287 287 288 289 287 285 288 288 288 288 288 287 286 281 280 280 279 278 276 274 273 272 271 272 272 271 271 270 269 269 268 268 265 263
273 275 275 276 276 276 276 277 278 281 286 286 286 287 288 287 288 288 288 288 288 286 280 279 279 278 277 276 274 273 272 272 272 272 271 270 270 269 268 267 266 265 263
273 275 273 275 275 275 275 277 278 279 280 277 282 284 286 287 287 288 288 288 284 285 281 278 278 277 276 276 275 274 273 272 271 271 270 270 269 268 266 266 266 264 263
271 273 273 274 274 274 273 273 279 279 279 276 272 279 280 286 286 287 288 285 283 282 282 278 278 278 277 277 276 275 274 272 271 270 270 269 268 267 266 266 265 265 263
269 272 271 269 270 275 278 278 278 278 279 279 279 274 273 276 281 283 284 284 284 283 282 281 278 278 278 278 277 276 274 272 270 269 269 269 267 267 266 265 265 263 262
267 269 270 274 275 276 277 277 277 278 278 278 279 277 283 281 279 280 281 282 283 284 282 281 280 278 278 278 276 275 273 272 270 269 269 268 267 265 266 265 264 263 262
265 266 265 266 271 274 275 275 276 276 276 277 278 279 282 281 282 281 281 282 283 284 284 283 281 280 278 277 276 275 273 272 270 269 269 268 266 265 264 263 262 262 261
263 262 262 263 264 266 269 269 272 273 274 274 275 275 276 277 278 279 280 282 282 283 284 284 283 280 278 277 277 275 273 272 271 270 268 267 266 264 263 262 262 261 260
262 262 262 260 261 263 263 266 266 266 267 268 269 271 272 273 274 275 277 279 280 281 282 281 280 278 276 275 274 274 274 273 272 270 269 267 265 264 263 262 261 260 260
258 258 259 260 260 261 262 262 263 263 264 266 268 269 270 271 271 272 273 274 275 276 276 274 275 275 275 274 272 272 272 272 271 270 268 267 265 263 262 261 261 260 260
256 256 257 258 258 257 257 259 261 262 263 264 265 266 268 269 270 271 271 272 272 272 272 273 271 271 272 272 271 271 270 271 269 268 267 266 264 262 262 261 260 260 259